| time (UTC) | temp F | wind direction | speed MPH | gust MPH | rain 1hr in | rain 24hr in | rain mn in | humidity % | barometer mb |
| 20260507054733 | 58 | 203 | 2.0 | 7.0 | 0.00 | 0.20 | 0.00 | 71 | 1012.2 |
| 20260507054533 | 58 | 195 | 3.0 | 7.0 | 0.00 | 0.21 | 0.00 | 71 | 1012.2 |
| 20260507054347 | 58 | 206 | 3.0 | 7.0 | 0.00 | 0.22 | 0.00 | 71 | 1012.2 |
| 20260507054132 | 58 | 202 | 4.0 | 7.0 | 0.00 | 0.23 | 0.00 | 71 | 1012.1 |
| 20260507053938 | 58 | 203 | 3.0 | 6.0 | 0.00 | 0.23 | 0.00 | 71 | 1012.2 |
| 20260507053735 | 58 | 217 | 3.0 | 6.0 | 0.00 | 0.24 | 0.00 | 71 | 1012.1 |
| 20260507053533 | 58 | 214 | 4.0 | 6.0 | 0.00 | 0.24 | 0.00 | 71 | 1012.1 |
| 20260507053334 | 58 | 197 | 2.0 | 5.0 | 0.00 | 0.24 | 0.00 | 71 | 1012.1 |
| 20260507053130 | 58 | 189 | 2.0 | 3.0 | 0.00 | 0.24 | 0.00 | 72 | 1012.1 |
| 20260507052930 | 58 | 189 | 2.0 | 3.0 | 0.00 | 0.25 | 0.00 | 73 | 1012.0 |
| 20260507052730 | 57 | 189 | 1.0 | 3.0 | 0.00 | 0.25 | 0.00 | 74 | 1012.0 |
| 20260507052529 | 57 | 189 | 0.0 | 3.0 | 0.00 | 0.25 | 0.00 | 74 | 1012.0 |
| 20260507052329 | 57 | 189 | 1.0 | 3.0 | 0.00 | 0.25 | 0.00 | 75 | 1012.0 |
| 20260507052131 | 56 | 189 | 1.0 | 4.0 | 0.00 | 0.25 | 0.00 | 75 | 1012.0 |
| 20260507051923 | 56 | 189 | 1.0 | 5.0 | 0.00 | 0.25 | 0.00 | 75 | 1011.9 |
| 20260507051723 | 56 | 189 | 1.0 | 5.0 | 0.00 | 0.26 | 0.00 | 76 | 1011.8 |
| 20260507051523 | 56 | 189 | 2.0 | 5.0 | 0.00 | 0.26 | 0.00 | 76 | 1011.9 |
| 20260507051332 | 56 | 189 | 2.0 | 5.0 | 0.00 | 0.26 | 0.00 | 77 | 1011.9 |
| 20260507051120 | 56 | 195 | 2.0 | 5.0 | 0.00 | 0.26 | 0.00 | 77 | 1011.9 |
| 20260507050920 | 55 | 209 | 3.0 | 5.0 | 0.00 | 0.27 | 0.00 | 77 | 1011.9 |
| 20260507050717 | 55 | 199 | 3.0 | 5.0 | 0.00 | 0.27 | 0.00 | 78 | 1011.8 |
| 20260507050523 | 55 | 196 | 3.0 | 5.0 | 0.00 | 0.27 | 0.00 | 78 | 1011.9 |
| 20260507050316 | 55 | 204 | 2.0 | 5.0 | 0.00 | 0.27 | 0.00 | 80 | 1011.9 |
| 20260507050111 | 55 | 202 | 2.0 | 4.0 | 0.00 | 0.27 | 0.00 | 80 | 1011.9 |
| 20260507045910 | 54 | 203 | 3.0 | 4.0 | 0.00 | 0.27 | 0.00 | 81 | 1011.9 |
| 20260507045709 | 54 | 204 | 2.0 | 4.0 | 0.00 | 0.28 | 0.00 | 81 | 1011.8 |
| 20260507045515 | 54 | 203 | 2.0 | 3.0 | 0.00 | 0.28 | 0.00 | 82 | 1011.7 |
| 20260507045308 | 54 | 203 | 2.0 | 3.0 | 0.00 | 0.28 | 0.00 | 83 | 1011.7 |
| 20260507045107 | 54 | 203 | 2.0 | 3.0 | 0.00 | 0.28 | 0.00 | 84 | 1011.7 |
| 20260507044906 | 53 | 203 | 1.0 | 3.0 | 0.00 | 0.28 | 0.00 | 85 | 1011.7 |
| 20260507044706 | 53 | 203 | 0.0 | 3.0 | 0.00 | 0.28 | 0.00 | 85 | 1011.6 |
| 20260507044513 | 53 | 203 | 0.0 | 3.0 | 0.00 | 0.28 | 0.00 | 86 | 1011.7 |
| 20260507044303 | 53 | 203 | 1.0 | 3.0 | 0.00 | 0.29 | 0.00 | 86 | 1011.6 |
| 20260507044102 | 53 | 203 | 1.0 | 3.0 | 0.00 | 0.29 | 0.00 | 86 | 1011.5 |
| 20260507043909 | 53 | 203 | 1.0 | 3.0 | 0.00 | 0.30 | 0.00 | 86 | 1011.6 |
| 20260507043705 | 53 | 203 | 1.0 | 2.0 | 0.00 | 0.30 | 0.00 | 86 | 1011.5 |
| 20260507043507 | 53 | 203 | 0.0 | 2.0 | 0.00 | 0.30 | 0.00 | 86 | 1011.5 |
| 20260507043300 | 53 | 203 | 1.0 | 2.0 | 0.00 | 0.31 | 0.00 | 86 | 1011.5 |
| 20260507043059 | 53 | 203 | 1.0 | 3.0 | 0.00 | 0.31 | 0.00 | 86 | 1011.5 |
| 20260507042902 | 53 | 203 | 0.0 | 4.0 | 0.00 | 0.31 | 0.00 | 85 | 1011.5 |
| 20260507042659 | 53 | 203 | 0.0 | 4.0 | 0.00 | 0.32 | 0.00 | 85 | 1011.5 |
| 20260507042458 | 53 | 203 | 0.0 | 4.0 | 0.00 | 0.33 | 0.00 | 85 | 1011.4 |
| 20260507042259 | 53 | 203 | 1.0 | 4.0 | 0.00 | 0.35 | 0.00 | 85 | 1011.4 |
| 20260507042057 | 53 | 203 | 2.0 | 4.0 | 0.00 | 0.35 | 0.00 | 85 | 1011.4 |
| 20260507041859 | 53 | 262 | 2.0 | 4.0 | 0.00 | 0.36 | 0.00 | 85 | 1011.4 |
| 20260507041658 | 53 | 264 | 3.0 | 4.0 | 0.00 | 0.38 | 0.00 | 85 | 1011.4 |
| 20260507041457 | 53 | 264 | 2.0 | 4.0 | 0.00 | 0.39 | 0.00 | 85 | 1011.5 |
| 20260507041257 | 53 | 264 | 2.0 | 4.0 | 0.00 | 0.40 | 0.00 | 85 | 1011.5 |
| 20260507041055 | 53 | 264 | 1.0 | 4.0 | 0.00 | 0.42 | 0.00 | 85 | 1011.4 |
| 20260507040853 | 53 | 264 | 2.0 | 4.0 | 0.00 | 0.43 | 0.00 | 85 | 1011.4 |
| 20260507040651 | 53 | 264 | 2.0 | 4.0 | 0.00 | 0.44 | 0.00 | 85 | 1011.4 |
| 20260507040451 | 53 | 264 | 2.0 | 4.0 | 0.00 | 0.45 | 0.00 | 84 | 1011.4 |
| 20260507040250 | 53 | 264 | 1.0 | 4.0 | 0.00 | 0.46 | 0.00 | 85 | 1011.4 |
| 20260507040050 | 53 | 264 | 2.0 | 4.0 | 0.00 | 0.46 | 0.00 | 84 | 1011.4 |
| 20260507035853 | 53 | 264 | 2.0 | 4.0 | 0.00 | 0.47 | 0.00 | 84 | 1011.4 |
| 20260507035649 | 53 | 264 | 2.0 | 4.0 | 0.00 | 0.48 | 0.00 | 84 | 1011.3 |
| 20260507035450 | 54 | 264 | 3.0 | 4.0 | 0.00 | 0.49 | 0.00 | 84 | 1011.2 |
| 20260507035248 | 54 | 264 | 2.0 | 4.0 | 0.00 | 0.50 | 0.00 | 84 | 1011.2 |
| 20260507035047 | 54 | 264 | 0.0 | 3.0 | 0.00 | 0.50 | 0.00 | 84 | 1011.2 |
| 20260507034850 | 54 | 264 | 0.0 | 3.0 | 0.00 | 0.50 | 0.00 | 83 | 1011.2 |
| 20260507034652 | 54 | 264 | 0.0 | 4.0 | 0.00 | 0.50 | 0.00 | 83 | 1011.2 |
| 20260507034448 | 54 | 264 | 1.0 | 5.0 | 0.00 | 0.51 | 0.00 | 83 | 1011.2 |
| 20260507034246 | 54 | 264 | 1.0 | 5.0 | 0.00 | 0.51 | 0.00 | 83 | 1011.2 |
| 20260507034045 | 54 | 264 | 2.0 | 5.0 | 0.00 | 0.52 | 0.00 | 83 | 1011.1 |
| 20260507033846 | 54 | 264 | 2.0 | 5.0 | 0.00 | 0.52 | 0.00 | 82 | 1011.1 |
| 20260507033649 | 55 | 244 | 2.0 | 6.0 | 0.00 | 0.52 | 0.00 | 82 | 1011.2 |
| 20260507033443 | 55 | 227 | 1.0 | 6.0 | 0.00 | 0.52 | 0.00 | 82 | 1011.1 |
| 20260507033243 | 55 | 227 | 1.0 | 6.0 | 0.00 | 0.52 | 0.00 | 82 | 1011.1 |
| 20260507033041 | 55 | 227 | 2.0 | 6.0 | 0.00 | 0.52 | 0.00 | 82 | 1011.2 |
| 20260507032840 | 55 | 227 | 4.0 | 6.0 | 0.00 | 0.52 | 0.00 | 82 | 1011.1 |
| 20260507032639 | 55 | 224 | 5.0 | 5.0 | 0.00 | 0.52 | 0.00 | 82 | 1011.2 |
| 20260507032441 | 55 | 226 | 3.0 | 4.0 | 0.00 | 0.52 | 0.00 | 81 | 1011.1 |
| 20260507032239 | 55 | 226 | 2.0 | 3.0 | 0.00 | 0.52 | 0.00 | 81 | 1011.2 |
| 20260507032038 | 55 | 226 | 2.0 | 3.0 | 0.00 | 0.52 | 0.00 | 81 | 1011.2 |
| 20260507031839 | 55 | 226 | 1.0 | 4.0 | 0.00 | 0.52 | 0.00 | 81 | 1011.2 |
| 20260507031637 | 55 | 226 | 2.0 | 5.0 | 0.00 | 0.52 | 0.00 | 81 | 1011.1 |
| 20260507031438 | 55 | 226 | 1.0 | 5.0 | 0.00 | 0.52 | 0.00 | 81 | 1011.1 |
| 20260507031236 | 55 | 226 | 2.0 | 5.0 | 0.00 | 0.52 | 0.00 | 81 | 1011.0 |
| 20260507031040 | 55 | 226 | 2.0 | 5.0 | 0.00 | 0.52 | 0.00 | 81 | 1011.0 |
| 20260507030837 | 55 | 226 | 3.0 | 5.0 | 0.00 | 0.52 | 0.00 | 81 | 1011.0 |
| 20260507030636 | 55 | 224 | 2.0 | 5.0 | 0.00 | 0.52 | 0.00 | 81 | 1011.0 |
| 20260507030439 | 55 | 224 | 3.0 | 6.0 | 0.00 | 0.52 | 0.00 | 81 | 1011.0 |
| 20260507030236 | 55 | 226 | 4.0 | 6.0 | 0.00 | 0.52 | 0.00 | 81 | 1011.0 |
| 20260507030045 | 55 | 224 | 4.0 | 6.0 | 0.00 | 0.52 | 0.00 | 81 | 1011.0 |
| 20260507025832 | 55 | 220 | 4.0 | 6.0 | 0.00 | 0.52 | 0.00 | 81 | 1011.0 |
| 20260507025635 | 55 | 185 | 4.0 | 6.0 | 0.00 | 0.52 | 0.00 | 81 | 1011.0 |
| 20260507025432 | 55 | 230 | 4.0 | 6.0 | 0.00 | 0.52 | 0.00 | 81 | 1011.0 |
| 20260507025232 | 56 | 226 | 4.0 | 7.0 | 0.00 | 0.52 | 0.00 | 81 | 1011.1 |
| 20260507025030 | 56 | 220 | 4.0 | 9.0 | 0.00 | 0.53 | 0.00 | 80 | 1011.0 |
| 20260507024828 | 56 | 223 | 4.0 | 9.0 | 0.00 | 0.53 | 0.00 | 80 | 1011.0 |
| 20260507024626 | 56 | 223 | 4.0 | 9.0 | 0.00 | 0.53 | 0.00 | 80 | 1011.1 |
| 20260507024427 | 56 | 224 | 3.0 | 9.0 | 0.00 | 0.53 | 0.00 | 81 | 1011.0 |
| 20260507024228 | 56 | 224 | 4.0 | 6.0 | 0.00 | 0.53 | 0.00 | 81 | 1011.0 |
| 20260507024027 | 56 | 221 | 2.0 | 6.0 | 0.00 | 0.53 | 0.00 | 81 | 1011.0 |
| 20260507023824 | 56 | 227 | 2.0 | 6.0 | 0.00 | 0.54 | 0.00 | 81 | 1011.0 |
| 20260507023623 | 56 | 288 | 3.0 | 6.0 | 0.00 | 0.54 | 0.00 | 81 | 1010.9 |
| 20260507023226 | 56 | 203 | 2.0 | 5.0 | 0.00 | 0.55 | 0.00 | 80 | 1011.0 |
| 20260507023022 | 56 | 175 | 3.0 | 6.0 | 0.00 | 0.55 | 0.00 | 80 | 1010.9 |
| 20260507022820 | 56 | 228 | 2.0 | 6.0 | 0.00 | 0.55 | 0.00 | 79 | 1010.9 |
| 20260507022620 | 56 | 243 | 2.0 | 6.0 | 0.00 | 0.56 | 0.00 | 79 | 1011.0 |
| 20260507022419 | 56 | 226 | 3.0 | 6.0 | 0.00 | 0.56 | 0.00 | 79 | 1010.9 |
| 20260507022221 | 56 | 278 | 4.0 | 6.0 | 0.00 | 0.57 | 0.00 | 79 | 1010.9 |
| 20260507022020 | 56 | 233 | 4.0 | 11.0 | 0.00 | 0.57 | 0.00 | 79 | 1010.9 |
| 20260507021817 | 56 | 221 | 4.0 | 11.0 | 0.00 | 0.57 | 0.00 | 78 | 1010.9 |
| 20260507021617 | 57 | 202 | 4.0 | 11.0 | 0.00 | 0.57 | 0.00 | 78 | 1010.9 |
| 20260507021417 | 57 | 231 | 5.0 | 11.0 | 0.00 | 0.58 | 0.00 | 78 | 1010.9 |
| 20260507021218 | 57 | 213 | 5.0 | 11.0 | 0.00 | 0.59 | 0.00 | 78 | 1010.9 |
| 20260507021017 | 57 | 228 | 5.0 | 10.0 | 0.00 | 0.59 | 0.00 | 78 | 1010.8 |
| 20260507020813 | 57 | 226 | 7.0 | 10.0 | 0.00 | 0.60 | 0.00 | 78 | 1010.9 |
| 20260507020613 | 57 | 224 | 6.0 | 9.0 | 0.00 | 0.60 | 0.00 | 78 | 1011.0 |
| 20260507020420 | 57 | 224 | 5.0 | 7.0 | 0.00 | 0.60 | 0.00 | 78 | 1011.0 |
| 20260507020216 | 57 | 203 | 3.0 | 7.0 | 0.00 | 0.60 | 0.00 | 77 | 1010.9 |
| 20260507020038 | 57 | 310 | 4.0 | 11.0 | 0.00 | 0.60 | 0.00 | 77 | 1011.0 |
| 20260507015814 | 58 | 244 | 2.0 | 11.0 | 0.00 | 0.60 | 0.00 | 76 | 1010.9 |
| 20260507015609 | 58 | 261 | 2.0 | 11.0 | 0.00 | 0.60 | 0.00 | 76 | 1010.8 |
| 20260507015408 | 58 | 327 | 3.0 | 11.0 | 0.00 | 0.60 | 0.00 | 75 | 1010.9 |
| 20260507015207 | 58 | 248 | 5.0 | 11.0 | 0.00 | 0.60 | 0.00 | 75 | 1010.8 |
| 20260507015018 | 58 | 197 | 6.0 | 11.0 | 0.00 | 0.61 | 0.00 | 75 | 1010.8 |
| 20260507014807 | 58 | 226 | 6.0 | 11.0 | 0.00 | 0.61 | 0.00 | 74 | 1010.7 |
| 20260507014608 | 58 | 219 | 6.0 | 12.0 | 0.00 | 0.61 | 0.00 | 74 | 1010.8 |
| 20260507014405 | 58 | 228 | 5.0 | 12.0 | 0.00 | 0.61 | 0.00 | 75 | 1010.7 |
| 20260507014205 | 58 | 228 | 6.0 | 12.0 | 0.00 | 0.61 | 0.00 | 75 | 1010.7 |
| 20260507014013 | 58 | 200 | 6.0 | 12.0 | 0.00 | 0.61 | 0.00 | 75 | 1010.6 |
| 20260507013804 | 58 | 227 | 7.0 | 12.0 | 0.00 | 0.62 | 0.00 | 75 | 1010.6 |
| 20260507013608 | 58 | 186 | 6.0 | 13.0 | 0.00 | 0.62 | 0.00 | 75 | 1010.6 |
| 20260507013404 | 58 | 183 | 5.0 | 13.0 | 0.00 | 0.63 | 0.00 | 75 | 1010.7 |
| 20260507013201 | 58 | 206 | 5.0 | 13.0 | 0.00 | 0.63 | 0.00 | 75 | 1010.7 |
| 20260507013014 | 58 | 226 | 5.0 | 13.0 | 0.00 | 0.64 | 0.00 | 75 | 1010.7 |
| 20260507012802 | 58 | 188 | 7.0 | 13.0 | 0.00 | 0.65 | 0.00 | 75 | 1010.7 |
| 20260507012601 | 58 | 179 | 5.0 | 12.0 | 0.00 | 0.65 | 0.00 | 75 | 1010.7 |
| 20260507012401 | 58 | 200 | 5.0 | 12.0 | 0.00 | 0.66 | 0.00 | 75 | 1010.7 |
| 20260507012201 | 58 | 200 | 6.0 | 12.0 | 0.00 | 0.68 | 0.00 | 75 | 1010.6 |
| 20260507012001 | 58 | 217 | 7.0 | 12.0 | 0.00 | 0.68 | 0.00 | 75 | 1010.5 |
| 20260507011800 | 58 | 190 | 7.0 | 12.0 | 0.00 | 0.69 | 0.00 | 76 | 1010.6 |
| 20260507011559 | 58 | 196 | 4.0 | 14.0 | 0.00 | 0.69 | 0.00 | 77 | 1010.6 |
| 20260507011402 | 57 | 230 | 5.0 | 14.0 | 0.00 | 0.70 | 0.00 | 78 | 1010.6 |
| 20260507011137 | 57 | 223 | 2.0 | 14.0 | 0.00 | 0.71 | 0.00 | 79 | 1010.6 |
| 20260507010938 | 56 | 212 | 4.0 | 14.0 | 0.00 | 0.72 | 0.00 | 80 | 1010.7 |
| 20260507010738 | 56 | 226 | 1.0 | 4.0 | 0.00 | 0.72 | 0.00 | 80 | 1010.7 |
| 20260507010533 | 56 | 221 | 1.0 | 5.0 | 0.00 | 0.72 | 0.00 | 80 | 1010.6 |
| 20260507010330 | 56 | 221 | 1.0 | 6.0 | 0.00 | 0.72 | 0.00 | 81 | 1010.5 |
| 20260507010129 | 56 | 224 | 2.0 | 6.0 | 0.00 | 0.72 | 0.00 | 81 | 1010.5 |
| 20260507005931 | 56 | 224 | 2.0 | 6.0 | 0.00 | 0.73 | 0.00 | 81 | 1010.5 |
| 20260507005730 | 56 | 224 | 2.0 | 6.0 | 0.00 | 0.74 | 0.00 | 80 | 1010.6 |
| 20260507005534 | 56 | 226 | 4.0 | 6.0 | 0.00 | 0.76 | 0.00 | 80 | 1010.6 |
| 20260507005326 | 56 | 206 | 3.0 | 6.0 | 0.00 | 0.76 | 0.00 | 80 | 1010.6 |
| 20260507005128 | 56 | 212 | 4.0 | 6.0 | 0.00 | 0.77 | 0.00 | 80 | 1010.6 |
| 20260507004930 | 56 | 220 | 3.0 | 6.0 | 0.00 | 0.79 | 0.00 | 79 | 1010.7 |
| 20260507004725 | 57 | 226 | 4.0 | 6.0 | 0.00 | 0.80 | 0.00 | 79 | 1010.7 |
| 20260507004524 | 57 | 259 | 4.0 | 6.0 | 0.00 | 0.80 | 0.00 | 79 | 1010.7 |
| 20260507004323 | 57 | 264 | 4.0 | 6.0 | 0.00 | 0.81 | 0.00 | 79 | 1010.7 |
| 20260507004123 | 56 | 264 | 3.0 | 5.0 | 0.00 | 0.82 | 0.00 | 79 | 1010.7 |
| 20260507003922 | 56 | 276 | 1.0 | 6.0 | 0.00 | 0.83 | 0.00 | 79 | 1010.7 |
| 20260507003724 | 56 | 276 | 3.0 | 6.0 | 0.00 | 0.83 | 0.00 | 79 | 1010.7 |
| 20260507003520 | 56 | 245 | 3.0 | 6.0 | 0.00 | 0.83 | 0.00 | 80 | 1010.7 |
| 20260507003319 | 56 | 243 | 3.0 | 6.0 | 0.00 | 0.84 | 0.00 | 80 | 1010.8 |
| 20260507003118 | 56 | 243 | 4.0 | 6.0 | 0.00 | 0.85 | 0.00 | 80 | 1010.8 |
| 20260507002923 | 56 | 231 | 3.0 | 5.0 | 0.00 | 0.85 | 0.00 | 79 | 1010.8 |
| 20260507002716 | 57 | 231 | 3.0 | 5.0 | 0.00 | 0.86 | 0.00 | 79 | 1010.7 |
| 20260507002519 | 57 | 230 | 3.0 | 5.0 | 0.00 | 0.86 | 0.00 | 79 | 1010.8 |
| 20260507002316 | 57 | 230 | 4.0 | 6.0 | 0.00 | 0.86 | 0.00 | 79 | 1010.8 |
| 20260507002114 | 57 | 228 | 3.0 | 6.0 | 0.00 | 0.87 | 0.00 | 79 | 1010.7 |
| 20260507001924 | 57 | 228 | 3.0 | 7.0 | 0.00 | 0.87 | 0.00 | 79 | 1010.7 |
| 20260507001713 | 57 | 226 | 4.0 | 7.0 | 0.00 | 0.87 | 0.00 | 79 | 1010.7 |
| 20260507001518 | 57 | 226 | 5.0 | 7.0 | 0.00 | 0.87 | 0.00 | 79 | 1010.7 |
| 20260507001312 | 57 | 226 | 4.0 | 7.0 | 0.00 | 0.87 | 0.00 | 79 | 1010.7 |
| 20260507001111 | 57 | 227 | 5.0 | 7.0 | 0.00 | 0.87 | 0.00 | 79 | 1010.8 |
| 20260507000916 | 57 | 209 | 4.0 | 6.0 | 0.00 | 0.87 | 0.00 | 79 | 1010.8 |
| 20260507000715 | 56 | 207 | 4.0 | 6.0 | 0.00 | 0.87 | 0.00 | 79 | 1010.8 |
| 20260507000520 | 56 | 206 | 4.0 | 5.0 | 0.00 | 0.87 | 0.00 | 80 | 1010.8 |
| 20260507000314 | 56 | 206 | 2.0 | 4.0 | 0.00 | 0.87 | 0.00 | 80 | 1010.9 |
| 20260507000109 | 56 | 206 | 2.0 | 4.0 | 0.00 | 0.87 | 0.00 | 80 | 1010.9 |
| 20260506235916 | 56 | 206 | 2.0 | 4.0 | 0.00 | 0.87 | 0.00 | 80 | 1010.8 |
| 20260506235709 | 56 | 206 | 3.0 | 4.0 | 0.00 | 0.87 | 0.00 | 79 | 1010.8 |
| 20260506235515 | 56 | 206 | 2.0 | 3.0 | 0.00 | 0.87 | 0.00 | 79 | 1010.8 |
| 20260506235307 | 56 | 206 | 2.0 | 3.0 | 0.00 | 0.87 | 0.00 | 79 | 1010.8 |
| 20260506235105 | 56 | 206 | 2.0 | 3.0 | 0.00 | 0.87 | 0.00 | 79 | 1010.7 |
| 20260506234909 | 56 | 206 | 1.0 | 4.0 | 0.00 | 0.87 | 0.00 | 79 | 1010.7 |
| 20260506234703 | 57 | 206 | 2.0 | 6.0 | 0.00 | 0.87 | 0.00 | 79 | 1010.7 |
| 20260506234515 | 57 | 206 | 1.0 | 6.0 | 0.00 | 0.87 | 0.00 | 79 | 1010.8 |
| 20260506234309 | 57 | 206 | 2.0 | 6.0 | 0.00 | 0.88 | 0.00 | 79 | 1010.8 |
| 20260506234107 | 57 | 206 | 2.0 | 6.0 | 0.00 | 0.88 | 0.00 | 78 | 1010.7 |
| 20260506233901 | 57 | 204 | 3.0 | 6.0 | 0.00 | 0.89 | 0.00 | 79 | 1010.7 |
| 20260506233656 | 57 | 202 | 2.0 | 4.0 | 0.00 | 0.89 | 0.00 | 78 | 1010.6 |
| 20260506233456 | 57 | 202 | 2.0 | 4.0 | 0.00 | 0.89 | 0.00 | 78 | 1010.8 |
| 20260506233257 | 57 | 202 | 2.0 | 5.0 | 0.00 | 0.89 | 0.00 | 78 | 1010.9 |
| 20260506233057 | 57 | 202 | 2.0 | 5.0 | 0.00 | 0.89 | 0.00 | 78 | 1010.8 |
| 20260506232854 | 57 | 202 | 2.0 | 5.0 | 0.00 | 0.90 | 0.00 | 77 | 1010.8 |
| 20260506232654 | 57 | 202 | 3.0 | 5.0 | 0.00 | 0.90 | 0.00 | 77 | 1010.8 |
| 20260506232451 | 58 | 202 | 3.0 | 5.0 | 0.00 | 0.90 | 0.00 | 77 | 1010.9 |
| 20260506232250 | 58 | 202 | 3.0 | 5.0 | 0.00 | 0.90 | 0.00 | 76 | 1010.8 |
| 20260506232051 | 58 | 200 | 2.0 | 4.0 | 0.00 | 0.90 | 0.00 | 76 | 1010.7 |
| 20260506231850 | 58 | 200 | 2.0 | 4.0 | 0.00 | 0.90 | 0.00 | 76 | 1010.8 |
| 20260506231650 | 58 | 200 | 2.0 | 4.0 | 0.00 | 0.90 | 0.00 | 75 | 1010.8 |
| 20260506231450 | 58 | 200 | 2.0 | 4.0 | 0.00 | 0.90 | 0.00 | 75 | 1010.8 |
| 20260506231250 | 58 | 200 | 2.0 | 4.0 | 0.00 | 0.90 | 0.00 | 75 | 1010.9 |
| 20260506231037 | 58 | 200 | 2.0 | 4.0 | 0.00 | 0.90 | 0.00 | 74 | 1010.9 |
| 20260506230836 | 59 | 200 | 2.0 | 4.0 | 0.00 | 0.90 | 0.00 | 74 | 1010.9 |
| 20260506230636 | 59 | 200 | 2.0 | 5.0 | 0.00 | 0.90 | 0.00 | 73 | 1011.0 |
| 20260506230434 | 59 | 200 | 2.0 | 5.0 | 0.00 | 0.90 | 0.00 | 73 | 1010.9 |
| 20260506230237 | 59 | 200 | 2.0 | 6.0 | 0.00 | 0.90 | 0.00 | 72 | 1010.9 |
| 20260506230044 | 59 | 200 | 2.0 | 6.0 | 0.00 | 0.90 | 0.00 | 72 | 1010.8 |
| 20260506225836 | 59 | 196 | 3.0 | 6.0 | 0.00 | 0.90 | 0.00 | 71 | 1010.8 |
| 20260506225632 | 59 | 196 | 4.0 | 6.0 | 0.00 | 0.90 | 0.00 | 71 | 1010.9 |
| 20260506225430 | 59 | 204 | 4.0 | 6.0 | 0.00 | 0.90 | 0.00 | 71 | 1011.0 |
| 20260506225227 | 59 | 214 | 2.0 | 5.0 | 0.00 | 0.90 | 0.00 | 71 | 1010.9 |
| 20260506225031 | 59 | 214 | 3.0 | 5.0 | 0.00 | 0.90 | 0.00 | 71 | 1010.9 |
| 20260506224826 | 59 | 216 | 4.0 | 6.0 | 0.00 | 0.90 | 0.00 | 72 | 1010.9 |
| 20260506224626 | 59 | 216 | 3.0 | 6.0 | 0.00 | 0.90 | 0.00 | 72 | 1010.8 |
| 20260506224433 | 59 | 217 | 3.0 | 6.0 | 0.00 | 0.90 | 0.00 | 72 | 1010.9 |
| 20260506224225 | 60 | 217 | 3.0 | 6.0 | 0.00 | 0.90 | 0.00 | 71 | 1010.9 |
| 20260506224026 | 60 | 217 | 3.0 | 6.0 | 0.00 | 0.90 | 0.00 | 71 | 1010.9 |
| 20260506223822 | 60 | 217 | 2.0 | 6.0 | 0.00 | 0.90 | 0.00 | 71 | 1010.8 |
| 20260506223623 | 60 | 219 | 4.0 | 6.0 | 0.00 | 0.90 | 0.00 | 70 | 1010.8 |
| 20260506223423 | 60 | 202 | 2.0 | 5.0 | 0.00 | 0.90 | 0.00 | 70 | 1010.9 |
| 20260506223233 | 60 | 200 | 3.0 | 5.0 | 0.00 | 0.90 | 0.00 | 70 | 1010.8 |
| 20260506223023 | 60 | 203 | 2.0 | 6.0 | 0.00 | 0.90 | 0.00 | 70 | 1010.8 |
| 20260506222818 | 60 | 202 | 2.0 | 6.0 | 0.00 | 0.90 | 0.00 | 71 | 1010.8 |
| 20260506222618 | 60 | 199 | 3.0 | 6.0 | 0.00 | 0.90 | 0.00 | 71 | 1010.9 |
| 20260506222417 | 60 | 199 | 3.0 | 7.0 | 0.00 | 0.90 | 0.00 | 71 | 1010.9 |
| 20260506222218 | 60 | 195 | 4.0 | 9.0 | 0.00 | 0.90 | 0.00 | 71 | 1010.9 |
| 20260506222023 | 60 | 196 | 3.0 | 9.0 | 0.00 | 0.90 | 0.00 | 71 | 1010.8 |
| 20260506221811 | 60 | 197 | 2.0 | 9.0 | 0.00 | 0.90 | 0.00 | 71 | 1010.9 |
| 20260506221614 | 60 | 185 | 4.0 | 9.0 | 0.00 | 0.90 | 0.00 | 70 | 1010.9 |
| 20260506221411 | 60 | 202 | 4.0 | 10.0 | 0.00 | 0.90 | 0.00 | 71 | 1010.9 |
| 20260506221221 | 60 | 213 | 5.0 | 11.0 | 0.00 | 0.90 | 0.00 | 70 | 1010.8 |
| 20260506221025 | 60 | 207 | 5.0 | 11.0 | 0.00 | 0.90 | 0.00 | 70 | 1010.9 |
| 20260506220813 | 60 | 216 | 6.0 | 11.0 | 0.00 | 0.90 | 0.00 | 70 | 1010.9 |
| 20260506220614 | 60 | 243 | 7.0 | 11.0 | 0.00 | 0.90 | 0.00 | 69 | 1010.8 |
| 20260506220417 | 60 | 197 | 8.0 | 11.0 | 0.00 | 0.90 | 0.00 | 69 | 1010.7 |
| 20260506220218 | 61 | 258 | 5.0 | 11.0 | 0.00 | 0.90 | 0.00 | 68 | 1010.8 |
| 20260506220047 | 61 | 278 | 6.0 | 11.0 | 0.00 | 0.90 | 0.00 | 67 | 1010.8 |
| 20260506215813 | 62 | 290 | 6.0 | 11.0 | 0.00 | 0.90 | 0.90 | 65 | 1010.7 |
| 20260506215613 | 62 | 234 | 6.0 | 9.0 | 0.00 | 0.90 | 0.90 | 64 | 1010.6 |
| 20260506215412 | 62 | 180 | 4.0 | 7.0 | 0.00 | 0.90 | 0.90 | 64 | 1010.5 |
| 20260506215216 | 62 | 209 | 3.0 | 9.0 | 0.00 | 0.90 | 0.90 | 64 | 1010.4 |
| 20260506215025 | 62 | 212 | 3.0 | 14.0 | 0.00 | 0.90 | 0.90 | 64 | 1010.4 |
| 20260506214810 | 62 | 183 | 4.0 | 14.0 | 0.00 | 0.90 | 0.90 | 63 | 1010.4 |
| 20260506214611 | 62 | 182 | 4.0 | 14.0 | 0.00 | 0.90 | 0.90 | 63 | 1010.4 |
| 20260506214412 | 62 | 240 | 4.0 | 14.0 | 0.00 | 0.90 | 0.90 | 63 | 1010.4 |
| 20260506214213 | 62 | 227 | 4.0 | 14.0 | 0.00 | 0.90 | 0.90 | 63 | 1010.4 |
| 20260506214020 | 62 | 196 | 3.0 | 9.0 | 0.00 | 0.90 | 0.90 | 63 | 1010.4 |
| 20260506213812 | 62 | 200 | 3.0 | 9.0 | 0.00 | 0.90 | 0.90 | 63 | 1010.3 |
| 20260506213610 | 62 | 151 | 4.0 | 9.0 | 0.00 | 0.90 | 0.90 | 63 | 1010.4 |
| 20260506213413 | 62 | 192 | 4.0 | 5.0 | 0.00 | 0.90 | 0.90 | 64 | 1010.3 |
| 20260506213214 | 62 | 151 | 3.0 | 9.0 | 0.00 | 0.90 | 0.90 | 65 | 1010.4 |
| 20260506213021 | 61 | 189 | 1.0 | 9.0 | 0.00 | 0.90 | 0.90 | 65 | 1010.3 |
| 20260506212813 | 61 | 178 | 1.0 | 9.0 | 0.00 | 0.90 | 0.90 | 65 | 1010.3 |
| 20260506212611 | 61 | 164 | 2.0 | 9.0 | 0.00 | 0.90 | 0.90 | 66 | 1010.4 |
| 20260506212415 | 61 | 221 | 4.0 | 9.0 | 0.00 | 0.90 | 0.90 | 66 | 1010.4 |
| 20260506212216 | 60 | 224 | 3.0 | 7.0 | 0.00 | 0.90 | 0.90 | 67 | 1010.3 |
| 20260506212023 | 60 | 233 | 3.0 | 7.0 | 0.00 | 0.90 | 0.90 | 67 | 1010.3 |
| 20260506211811 | 60 | 199 | 2.0 | 12.0 | 0.00 | 0.90 | 0.90 | 68 | 1010.4 |
| 20260506211610 | 60 | 196 | 3.0 | 12.0 | 0.00 | 0.90 | 0.90 | 68 | 1010.4 |
| 20260506211412 | 60 | 152 | 3.0 | 12.0 | 0.00 | 0.90 | 0.90 | 69 | 1010.4 |
| 20260506211214 | 60 | 223 | 2.0 | 12.0 | 0.00 | 0.90 | 0.90 | 69 | 1010.4 |
| 20260506211019 | 60 | 223 | 3.0 | 12.0 | 0.00 | 0.90 | 0.90 | 69 | 1010.4 |
| 20260506210812 | 60 | 235 | 2.0 | 5.0 | 0.00 | 0.90 | 0.90 | 70 | 1010.4 |
| 20260506210610 | 60 | 235 | 2.0 | 5.0 | 0.00 | 0.90 | 0.90 | 70 | 1010.5 |
| 20260506210411 | 60 | 235 | 3.0 | 5.0 | 0.00 | 0.90 | 0.90 | 70 | 1010.5 |
| 20260506210213 | 60 | 235 | 2.0 | 4.0 | 0.00 | 0.90 | 0.90 | 70 | 1010.5 |
| 20260506210038 | 60 | 235 | 3.0 | 4.0 | 0.00 | 0.90 | 0.90 | 70 | 1010.5 |
| 20260506205811 | 60 | 235 | 1.0 | 4.0 | 0.00 | 0.90 | 0.90 | 70 | 1010.5 |
| 20260506205614 | 60 | 235 | 2.0 | 4.0 | 0.00 | 0.90 | 0.90 | 69 | 1010.4 |
| 20260506205412 | 60 | 235 | 2.0 | 4.0 | 0.00 | 0.90 | 0.90 | 69 | 1010.5 |
| 20260506205213 | 60 | 235 | 2.0 | 3.0 | 0.00 | 0.90 | 0.90 | 69 | 1010.3 |
| 20260506205020 | 61 | 235 | 1.0 | 4.0 | 0.00 | 0.90 | 0.90 | 68 | 1010.3 |
| 20260506204812 | 61 | 235 | 1.0 | 4.0 | 0.00 | 0.90 | 0.90 | 67 | 1010.3 |
| 20260506204613 | 61 | 235 | 1.0 | 5.0 | 0.00 | 0.90 | 0.90 | 67 | 1010.3 |
| 20260506204412 | 61 | 235 | 1.0 | 7.0 | 0.00 | 0.90 | 0.90 | 67 | 1010.2 |
| 20260506204217 | 61 | 235 | 1.0 | 7.0 | 0.00 | 0.90 | 0.90 | 66 | 1010.2 |
| 20260506204032 | 62 | 235 | 3.0 | 7.0 | 0.00 | 0.90 | 0.90 | 66 | 1010.2 |
| 20260506203812 | 62 | 235 | 3.0 | 7.0 | 0.00 | 0.90 | 0.90 | 65 | 1010.2 |
| 20260506203613 | 62 | 220 | 4.0 | 7.0 | 0.00 | 0.90 | 0.90 | 64 | 1010.2 |
| 20260506203411 | 62 | 226 | 3.0 | 7.0 | 0.00 | 0.90 | 0.90 | 63 | 1010.2 |
| 20260506203213 | 62 | 197 | 2.0 | 7.0 | 0.00 | 0.90 | 0.90 | 62 | 1010.1 |
| 20260506203024 | 62 | 158 | 3.0 | 7.0 | 0.00 | 0.90 | 0.90 | 61 | 1010.1 |
| 20260506202812 | 62 | 186 | 0.0 | 5.0 | 0.00 | 0.90 | 0.90 | 61 | 1010.2 |
| 20260506202611 | 62 | 186 | 2.0 | 5.0 | 0.00 | 0.90 | 0.90 | 61 | 1010.1 |
| 20260506202410 | 62 | 217 | 2.0 | 5.0 | 0.00 | 0.90 | 0.90 | 61 | 1010.1 |
| 20260506202225 | 62 | 206 | 3.0 | 5.0 | 0.00 | 0.90 | 0.90 | 61 | 1010.2 |
| 20260506202027 | 62 | 235 | 3.0 | 5.0 | 0.00 | 0.90 | 0.90 | 60 | 1010.1 |
| 20260506201811 | 62 | 226 | 3.0 | 5.0 | 0.00 | 0.90 | 0.90 | 60 | 1010.0 |
| 20260506201615 | 62 | 195 | 1.0 | 4.0 | 0.00 | 0.90 | 0.90 | 61 | 1010.0 |
| 20260506201409 | 62 | 195 | 2.0 | 6.0 | 0.00 | 0.90 | 0.90 | 61 | 1010.0 |
| 20260506201203 | 63 | 209 | 1.0 | 6.0 | 0.00 | 0.90 | 0.90 | 61 | 1009.9 |
| 20260506201019 | 63 | 209 | 2.0 | 6.0 | 0.00 | 0.90 | 0.90 | 60 | 1009.9 |
| 20260506200806 | 63 | 212 | 3.0 | 6.0 | 0.00 | 0.90 | 0.90 | 60 | 1009.9 |
| 20260506200611 | 63 | 220 | 4.0 | 6.0 | 0.00 | 0.90 | 0.90 | 59 | 1009.8 |
| 20260506200406 | 63 | 213 | 1.0 | 6.0 | 0.00 | 0.90 | 0.90 | 59 | 1009.8 |
| 20260506200204 | 63 | 231 | 4.0 | 6.0 | 0.00 | 0.90 | 0.90 | 59 | 1009.8 |
| 20260506200044 | 63 | 207 | 3.0 | 6.0 | 0.00 | 0.90 | 0.90 | 58 | 1009.8 |
| 20260506195804 | 63 | 199 | 2.0 | 6.0 | 0.00 | 0.90 | 0.90 | 58 | 1009.8 |
| 20260506195607 | 64 | 186 | 3.0 | 6.0 | 0.00 | 0.90 | 0.90 | 58 | 1009.7 |
| 20260506195401 | 64 | 228 | 3.0 | 10.0 | 0.00 | 0.90 | 0.90 | 58 | 1009.8 |
| 20260506195204 | 64 | 243 | 4.0 | 10.0 | 0.00 | 0.90 | 0.90 | 57 | 1009.7 |
| 20260506195001 | 64 | 212 | 3.0 | 10.0 | 0.00 | 0.90 | 0.90 | 57 | 1009.7 |
| 20260506194801 | 64 | 228 | 4.0 | 10.0 | 0.00 | 0.90 | 0.90 | 57 | 1009.7 |
| 20260506194608 | 64 | 223 | 4.0 | 10.0 | 0.00 | 0.90 | 0.90 | 57 | 1009.6 |
| 20260506194401 | 64 | 206 | 3.0 | 7.0 | 0.00 | 0.90 | 0.90 | 57 | 1009.7 |
| 20260506194200 | 64 | 206 | 4.0 | 9.0 | 0.00 | 0.90 | 0.90 | 56 | 1009.6 |
| 20260506193959 | 64 | 237 | 2.0 | 9.0 | 0.00 | 0.90 | 0.90 | 57 | 1009.6 |
| 20260506193759 | 64 | 219 | 4.0 | 10.0 | 0.00 | 0.90 | 0.90 | 56 | 1009.5 |
| 20260506193601 | 64 | 231 | 4.0 | 10.0 | 0.00 | 0.90 | 0.90 | 56 | 1009.4 |
| 20260506193359 | 64 | 212 | 3.0 | 10.0 | 0.00 | 0.90 | 0.90 | 56 | 1009.4 |
| 20260506193158 | 64 | 219 | 3.0 | 10.0 | 0.00 | 0.90 | 0.90 | 56 | 1009.4 |
| 20260506192957 | 64 | 182 | 5.0 | 11.0 | 0.00 | 0.90 | 0.90 | 56 | 1009.3 |
| 20260506192756 | 64 | 217 | 3.0 | 11.0 | 0.00 | 0.90 | 0.90 | 56 | 1009.3 |
| 20260506192600 | 65 | 234 | 3.0 | 11.0 | 0.00 | 0.90 | 0.90 | 55 | 1009.2 |
| 20260506192356 | 65 | 137 | 4.0 | 11.0 | 0.00 | 0.90 | 0.90 | 55 | 1009.2 |
| 20260506192156 | 65 | 214 | 6.0 | 11.0 | 0.00 | 0.90 | 0.90 | 55 | 1009.2 |
| 20260506191956 | 65 | 176 | 4.0 | 9.0 | 0.00 | 0.90 | 0.90 | 55 | 1009.1 |
| 20260506191756 | 65 | 206 | 3.0 | 7.0 | 0.00 | 0.90 | 0.90 | 55 | 1009.1 |
| 20260506191551 | 65 | 182 | 3.0 | 10.0 | 0.00 | 0.90 | 0.90 | 54 | 1009.1 |
| 20260506191354 | 65 | 209 | 3.0 | 10.0 | 0.00 | 0.90 | 0.90 | 54 | 1009.0 |
| 20260506191152 | 65 | 214 | 3.0 | 11.0 | 0.00 | 0.90 | 0.90 | 54 | 1008.9 |
| 20260506190951 | 65 | 183 | 5.0 | 14.0 | 0.00 | 0.90 | 0.90 | 54 | 1008.9 |
| 20260506190749 | 65 | 221 | 5.0 | 14.0 | 0.00 | 0.90 | 0.90 | 54 | 1008.9 |
| 20260506190553 | 65 | 161 | 4.0 | 14.0 | 0.00 | 0.90 | 0.90 | 54 | 1008.8 |
| 20260506190350 | 65 | 219 | 6.0 | 14.0 | 0.00 | 0.90 | 0.90 | 53 | 1008.9 |
| 20260506190149 | 65 | 202 | 6.0 | 14.0 | 0.00 | 0.90 | 0.90 | 53 | 1008.9 |
| 20260506185949 | 65 | 197 | 5.0 | 11.0 | 0.00 | 0.90 | 0.90 | 54 | 1008.9 |
| 20260506185749 | 65 | 219 | 4.0 | 11.0 | 0.00 | 0.90 | 0.90 | 54 | 1008.8 |
| 20260506185548 | 65 | 110 | 5.0 | 12.0 | 0.00 | 0.90 | 0.90 | 54 | 1008.9 |
| 20260506185346 | 65 | 204 | 4.0 | 12.0 | 0.00 | 0.90 | 0.90 | 54 | 1008.8 |
| 20260506185147 | 65 | 193 | 4.0 | 12.0 | 0.00 | 0.90 | 0.90 | 54 | 1008.8 |
| 20260506184949 | 65 | 223 | 5.0 | 12.0 | 0.00 | 0.90 | 0.90 | 55 | 1008.9 |
| 20260506184747 | 65 | 158 | 6.0 | 12.0 | 0.00 | 0.90 | 0.90 | 56 | 1008.8 |
| 20260506184550 | 65 | 233 | 7.0 | 12.0 | 0.00 | 0.90 | 0.90 | 56 | 1008.9 |
| 20260506184344 | 65 | 216 | 7.0 | 12.0 | 0.00 | 0.90 | 0.90 | 56 | 1008.8 |
| 20260506184142 | 65 | 162 | 7.0 | 12.0 | 0.00 | 0.90 | 0.90 | 56 | 1008.8 |
| 20260506183941 | 65 | 157 | 8.0 | 12.0 | 0.00 | 0.90 | 0.90 | 56 | 1008.8 |
| 20260506183742 | 65 | 233 | 6.0 | 12.0 | 0.00 | 0.90 | 0.90 | 57 | 1008.7 |
| 20260506183539 | 66 | 227 | 6.0 | 12.0 | 0.00 | 0.90 | 0.90 | 57 | 1008.7 |
| 20260506183339 | 66 | 213 | 6.0 | 12.0 | 0.00 | 0.90 | 0.90 | 57 | 1008.7 |
| 20260506183139 | 66 | 175 | 6.0 | 12.0 | 0.00 | 0.90 | 0.90 | 57 | 1008.7 |
| 20260506182939 | 66 | 189 | 4.0 | 9.0 | 0.00 | 0.90 | 0.90 | 57 | 1008.7 |
| 20260506182738 | 66 | 148 | 4.0 | 9.0 | 0.00 | 0.90 | 0.90 | 57 | 1008.6 |
| 20260506182543 | 66 | 158 | 4.0 | 9.0 | 0.00 | 0.90 | 0.90 | 57 | 1008.6 |
| 20260506182345 | 66 | 189 | 4.0 | 9.0 | 0.00 | 0.90 | 0.90 | 58 | 1008.6 |
| 20260506182139 | 66 | 175 | 3.0 | 7.0 | 0.00 | 0.90 | 0.90 | 57 | 1008.6 |
| 20260506181938 | 66 | 137 | 2.0 | 12.0 | 0.00 | 0.90 | 0.90 | 57 | 1008.6 |
| 20260506181738 | 66 | 165 | 4.0 | 12.0 | 0.00 | 0.90 | 0.90 | 57 | 1008.6 |
| 20260506181537 | 66 | 176 | 4.0 | 12.0 | 0.00 | 0.90 | 0.90 | 57 | 1008.6 |
| 20260506181338 | 66 | 209 | 3.0 | 12.0 | 0.00 | 0.90 | 0.90 | 58 | 1008.5 |
| 20260506181135 | 67 | 171 | 5.0 | 12.0 | 0.00 | 0.90 | 0.90 | 58 | 1008.4 |
| 20260506180934 | 67 | 230 | 5.0 | 10.0 | 0.00 | 0.90 | 0.90 | 58 | 1008.4 |
| 20260506180731 | 67 | 219 | 4.0 | 6.0 | 0.00 | 0.90 | 0.90 | 58 | 1008.4 |
| 20260506180529 | 67 | 193 | 3.0 | 6.0 | 0.00 | 0.90 | 0.90 | 59 | 1008.4 |
| 20260506180332 | 67 | 233 | 3.0 | 7.0 | 0.00 | 0.90 | 0.90 | 59 | 1008.5 |
| 20260506180130 | 67 | 213 | 2.0 | 7.0 | 0.00 | 0.90 | 0.90 | 59 | 1008.4 |
| 20260506175930 | 67 | 164 | 3.0 | 7.0 | 0.00 | 0.90 | 0.90 | 59 | 1008.5 |
| 20260506175729 | 67 | 188 | 2.0 | 9.0 | 0.00 | 0.90 | 0.90 | 59 | 1008.4 |
| 20260506175530 | 67 | 155 | 2.0 | 9.0 | 0.00 | 0.90 | 0.90 | 59 | 1008.4 |
| 20260506175329 | 67 | 165 | 2.0 | 9.0 | 0.00 | 0.90 | 0.90 | 60 | 1008.4 |
| 20260506175132 | 67 | 147 | 2.0 | 9.0 | 0.00 | 0.90 | 0.90 | 60 | 1008.3 |
| 20260506174929 | 67 | 142 | 4.0 | 9.0 | 0.00 | 0.90 | 0.90 | 60 | 1008.4 |
| 20260506174729 | 67 | 202 | 2.0 | 6.0 | 0.00 | 0.90 | 0.90 | 59 | 1008.4 |
| 20260506174529 | 67 | 196 | 2.0 | 6.0 | 0.00 | 0.90 | 0.90 | 59 | 1008.4 |
| 20260506174329 | 67 | 185 | 2.0 | 6.0 | 0.00 | 0.90 | 0.90 | 60 | 1008.4 |
| 20260506174125 | 67 | 202 | 3.0 | 10.0 | 0.00 | 0.90 | 0.90 | 60 | 1008.3 |
| 20260506174001 | 67 | 186 | 4.0 | 10.0 | 0.00 | 0.90 | 0.90 | 60 | 1008.3 |
| 20260506173900 | 67 | 193 | 3.0 | 10.0 | 0.00 | 0.90 | 0.90 | 61 | 1008.3 |
| 20260506173753 | 67 | 195 | 2.0 | 10.0 | 0.00 | 0.90 | 0.90 | 60 | 1008.2 |
| 20260506164716 | 68 | 169 | 2.0 | 11.0 | 0.00 | 0.90 | 0.90 | 68 | 1008.0 |
| 20260506164519 | 68 | 110 | 3.0 | 11.0 | 0.00 | 0.90 | 0.90 | 67 | 1008.0 |
| 20260506164303 | 68 | 197 | 3.0 | 11.0 | 0.00 | 0.90 | 0.90 | 67 | 1007.9 |
| 20260506164107 | 68 | 213 | 4.0 | 11.0 | 0.00 | 0.90 | 0.90 | 66 | 1007.9 |
| 20260506163903 | 68 | 145 | 5.0 | 11.0 | 0.00 | 0.90 | 0.90 | 67 | 1007.9 |
| 20260506163705 | 68 | 192 | 3.0 | 7.0 | 0.00 | 0.90 | 0.90 | 69 | 1007.9 |
| 20260506163501 | 68 | 224 | 3.0 | 11.0 | 0.00 | 0.90 | 0.90 | 68 | 1007.9 |
| 20260506163302 | 68 | 207 | 5.0 | 11.0 | 0.00 | 0.90 | 0.90 | 68 | 1007.9 |
| 20260506163102 | 68 | 206 | 4.0 | 11.0 | 0.00 | 0.90 | 0.90 | 66 | 1007.9 |
| 20260506162901 | 68 | 185 | 5.0 | 11.0 | 0.00 | 0.90 | 0.90 | 66 | 1007.9 |
| 20260506162701 | 68 | 189 | 5.0 | 11.0 | 0.00 | 0.90 | 0.90 | 65 | 1007.8 |
| 20260506162511 | 68 | 179 | 5.0 | 10.0 | 0.00 | 0.90 | 0.90 | 66 | 1007.9 |
| 20260506162301 | 68 | 186 | 5.0 | 10.0 | 0.00 | 0.90 | 0.90 | 67 | 1007.9 |
| 20260506162104 | 68 | 197 | 5.0 | 9.0 | 0.00 | 0.90 | 0.90 | 67 | 1007.8 |
| 20260506161900 | 68 | 227 | 4.0 | 9.0 | 0.00 | 0.90 | 0.90 | 67 | 1007.9 |
| 20260506161706 | 68 | 204 | 4.0 | 7.0 | 0.00 | 0.90 | 0.90 | 67 | 1007.9 |
| 20260506161500 | 68 | 193 | 4.0 | 7.0 | 0.00 | 0.90 | 0.90 | 67 | 1007.9 |
| 20260506161306 | 68 | 227 | 4.0 | 7.0 | 0.00 | 0.90 | 0.90 | 67 | 1007.9 |
| 20260506161046 | 68 | 206 | 3.0 | 7.0 | 0.00 | 0.90 | 0.90 | 66 | 1007.9 |
| 20260506160846 | 68 | 199 | 4.0 | 7.0 | 0.00 | 0.90 | 0.90 | 66 | 1007.9 |
| 20260506160647 | 68 | 192 | 5.0 | 7.0 | 0.00 | 0.90 | 0.90 | 66 | 1007.8 |
| 20260506160443 | 68 | 213 | 4.0 | 9.0 | 0.00 | 0.90 | 0.90 | 66 | 1007.9 |
| 20260506160246 | 68 | 199 | 4.0 | 9.0 | 0.00 | 0.90 | 0.90 | 67 | 1007.8 |
| 20260506160044 | 68 | 224 | 4.0 | 9.0 | 0.00 | 0.90 | 0.90 | 67 | 1007.8 |
| 20260506155840 | 68 | 190 | 4.0 | 9.0 | 0.00 | 0.90 | 0.90 | 67 | 1007.9 |
| 20260506155640 | 68 | 210 | 4.0 | 9.0 | 0.00 | 0.90 | 0.90 | 67 | 1007.8 |
| 20260506155437 | 68 | 203 | 3.0 | 11.0 | 0.00 | 0.90 | 0.90 | 68 | 1007.8 |
| 20260506155236 | 68 | 202 | 3.0 | 11.0 | 0.00 | 0.90 | 0.90 | 68 | 1007.7 |
| 20260506155033 | 68 | 186 | 3.0 | 11.0 | 0.00 | 0.90 | 0.90 | 69 | 1007.6 |
| 20260506154833 | 68 | 216 | 4.0 | 11.0 | 0.00 | 0.90 | 0.90 | 69 | 1007.7 |
| 20260506154632 | 68 | 190 | 5.0 | 11.0 | 0.00 | 0.90 | 0.90 | 69 | 1007.7 |
| 20260506154433 | 68 | 214 | 6.0 | 11.0 | 0.00 | 0.90 | 0.90 | 69 | 1007.7 |
| 20260506154235 | 68 | 183 | 4.0 | 10.0 | 0.00 | 0.90 | 0.90 | 69 | 1007.6 |
| 20260506154036 | 68 | 203 | 4.0 | 10.0 | 0.00 | 0.90 | 0.90 | 69 | 1007.6 |
| 20260506153831 | 67 | 197 | 4.0 | 10.0 | 0.00 | 0.90 | 0.90 | 70 | 1007.7 |
| 20260506153630 | 67 | 182 | 4.0 | 10.0 | 0.00 | 0.90 | 0.90 | 70 | 1007.7 |
| 20260506153430 | 67 | 244 | 4.0 | 10.0 | 0.00 | 0.90 | 0.90 | 70 | 1007.6 |
| 20260506153223 | 67 | 131 | 3.0 | 7.0 | 0.00 | 0.90 | 0.90 | 71 | 1007.7 |
| 20260506153022 | 67 | 221 | 4.0 | 7.0 | 0.00 | 0.90 | 0.90 | 71 | 1007.7 |
| 20260506152819 | 67 | 199 | 4.0 | 6.0 | 0.00 | 0.90 | 0.90 | 72 | 1007.8 |
| 20260506152616 | 67 | 186 | 4.0 | 6.0 | 0.00 | 0.90 | 0.90 | 72 | 1007.8 |
| 20260506152418 | 67 | 195 | 4.0 | 6.0 | 0.00 | 0.90 | 0.90 | 72 | 1007.8 |
| 20260506152214 | 67 | 195 | 2.0 | 6.0 | 0.00 | 0.90 | 0.90 | 73 | 1007.8 |
| 20260506152020 | 67 | 193 | 2.0 | 6.0 | 0.00 | 0.90 | 0.90 | 72 | 1007.9 |
| 20260506151813 | 67 | 190 | 2.0 | 6.0 | 0.00 | 0.90 | 0.90 | 72 | 1007.9 |
| 20260506151613 | 67 | 182 | 2.0 | 6.0 | 0.00 | 0.90 | 0.90 | 72 | 1007.9 |
| 20260506151414 | 67 | 179 | 4.0 | 6.0 | 0.00 | 0.90 | 0.90 | 72 | 1007.9 |
| 20260506151210 | 67 | 212 | 2.0 | 6.0 | 0.00 | 0.90 | 0.90 | 73 | 1008.0 |
| 20260506151023 | 67 | 207 | 2.0 | 6.0 | 0.00 | 0.90 | 0.90 | 73 | 1008.1 |
| 20260506150815 | 67 | 192 | 2.0 | 4.0 | 0.00 | 0.90 | 0.90 | 73 | 1007.9 |
| 20260506150610 | 67 | 138 | 1.0 | 4.0 | 0.00 | 0.90 | 0.90 | 73 | 1007.9 |
| 20260506150411 | 67 | 131 | 1.0 | 5.0 | 0.00 | 0.90 | 0.90 | 73 | 1007.9 |
| 20260506150211 | 67 | 141 | 3.0 | 5.0 | 0.00 | 0.90 | 0.90 | 73 | 1007.9 |
| 20260506150030 | 67 | 204 | 1.0 | 6.0 | 0.00 | 0.90 | 0.90 | 74 | 1007.8 |
| 20260506145810 | 67 | 157 | 1.0 | 9.0 | 0.00 | 0.90 | 0.90 | 74 | 1007.8 |
| 20260506145603 | 67 | 154 | 3.0 | 9.0 | 0.00 | 0.90 | 0.90 | 74 | 1007.6 |
| 20260506145407 | 67 | 159 | 2.0 | 9.0 | 0.00 | 0.90 | 0.90 | 75 | 1007.8 |
| 20260506145205 | 67 | 168 | 4.0 | 13.0 | 0.00 | 0.90 | 0.90 | 74 | 1007.7 |
| 20260506145014 | 67 | 135 | 2.0 | 13.0 | 0.00 | 0.90 | 0.90 | 74 | 1007.7 |
| 20260506144808 | 67 | 114 | 3.0 | 13.0 | 0.00 | 0.90 | 0.90 | 74 | 1007.9 |
| 20260506144605 | 67 | 157 | 2.0 | 13.0 | 0.00 | 0.90 | 0.90 | 74 | 1008.0 |
| 20260506144410 | 67 | 203 | 5.0 | 13.0 | 0.00 | 0.90 | 0.90 | 74 | 1007.9 |
| 20260506144208 | 67 | 195 | 2.0 | 4.0 | 0.00 | 0.90 | 0.90 | 74 | 1008.0 |
| 20260506144006 | 67 | 204 | 2.0 | 5.0 | 0.00 | 0.90 | 0.90 | 74 | 1008.0 |
| 20260506143806 | 67 | 182 | 1.0 | 5.0 | 0.00 | 0.90 | 0.90 | 74 | 1008.0 |
| 20260506143602 | 67 | 162 | 2.0 | 7.0 | 0.00 | 0.90 | 0.90 | 74 | 1008.0 |
| 20260506143401 | 67 | 189 | 1.0 | 10.0 | 0.00 | 0.90 | 0.90 | 74 | 1008.0 |
| 20260506143203 | 67 | 188 | 3.0 | 14.0 | 0.00 | 0.90 | 0.90 | 74 | 1008.0 |
| 20260506143015 | 67 | 142 | 2.0 | 14.0 | 0.00 | 0.90 | 0.90 | 74 | 1007.9 |
| 20260506142805 | 67 | 203 | 4.0 | 14.0 | 0.00 | 0.90 | 0.90 | 74 | 1007.9 |
| 20260506142601 | 67 | 202 | 4.0 | 14.0 | 0.00 | 0.90 | 0.90 | 74 | 1007.8 |
| 20260506142401 | 67 | 142 | 6.0 | 14.0 | 0.00 | 0.90 | 0.90 | 73 | 1007.9 |
| 20260506142210 | 67 | 151 | 5.0 | 12.0 | 0.00 | 0.90 | 0.90 | 74 | 1007.9 |
| 20260506142014 | 67 | 213 | 5.0 | 12.0 | 0.00 | 0.90 | 0.90 | 74 | 1007.9 |
| 20260506141800 | 67 | 192 | 6.0 | 12.0 | 0.00 | 0.90 | 0.90 | 75 | 1007.7 |
| 20260506141600 | 67 | 226 | 4.0 | 11.0 | 0.00 | 0.90 | 0.90 | 76 | 1007.8 |
| 20260506141359 | 67 | 195 | 4.0 | 11.0 | 0.00 | 0.90 | 0.90 | 75 | 1007.8 |
| 20260506141206 | 67 | 155 | 5.0 | 10.0 | 0.00 | 0.90 | 0.90 | 75 | 1007.8 |
| 20260506140959 | 67 | 199 | 6.0 | 12.0 | 0.00 | 0.90 | 0.90 | 76 | 1007.9 |
| 20260506140801 | 67 | 175 | 4.0 | 12.0 | 0.00 | 0.90 | 0.90 | 76 | 1007.9 |
| 20260506140558 | 67 | 209 | 4.0 | 12.0 | 0.00 | 0.90 | 0.90 | 75 | 1007.9 |
| 20260506140357 | 67 | 200 | 6.0 | 12.0 | 0.00 | 0.90 | 0.90 | 75 | 1008.0 |
| 20260506140206 | 67 | 195 | 7.0 | 12.0 | 0.00 | 0.90 | 0.90 | 74 | 1008.0 |
| 20260506135959 | 67 | 197 | 5.0 | 12.0 | 0.00 | 0.90 | 0.90 | 74 | 1008.0 |
| 20260506135801 | 67 | 183 | 5.0 | 12.0 | 0.00 | 0.90 | 0.90 | 74 | 1008.3 |
| 20260506135557 | 67 | 230 | 4.0 | 12.0 | 0.00 | 0.90 | 0.90 | 73 | 1008.3 |
| 20260506135359 | 67 | 200 | 7.0 | 12.0 | 0.00 | 0.90 | 0.90 | 72 | 1008.4 |
| 20260506135159 | 67 | 133 | 5.0 | 12.0 | 0.00 | 0.90 | 0.90 | 73 | 1008.4 |
| 20260506134954 | 67 | 227 | 5.0 | 11.0 | 0.00 | 0.90 | 0.90 | 73 | 1008.4 |
| 20260506134751 | 67 | 197 | 4.0 | 15.0 | 0.00 | 0.90 | 0.90 | 73 | 1008.4 |
| 20260506134548 | 67 | 171 | 4.0 | 17.0 | 0.00 | 0.90 | 0.90 | 73 | 1008.4 |
| 20260506134350 | 67 | 206 | 5.0 | 17.0 | 0.00 | 0.90 | 0.90 | 72 | 1008.3 |
| 20260506134159 | 67 | 227 | 6.0 | 17.0 | 0.00 | 0.90 | 0.90 | 72 | 1008.3 |
| 20260506133947 | 67 | 228 | 7.0 | 17.0 | 0.00 | 0.90 | 0.90 | 73 | 1008.5 |
| 20260506133748 | 67 | 171 | 7.0 | 17.0 | 0.00 | 0.90 | 0.90 | 75 | 1008.4 |
| 20260506133546 | 66 | 200 | 8.0 | 14.0 | 0.00 | 0.90 | 0.90 | 76 | 1008.4 |
| 20260506133346 | 66 | 176 | 6.0 | 13.0 | 0.00 | 0.90 | 0.90 | 77 | 1008.4 |
| 20260506133146 | 66 | 197 | 6.0 | 14.0 | 0.00 | 0.90 | 0.90 | 77 | 1008.5 |
| 20260506132947 | 66 | 168 | 5.0 | 14.0 | 0.00 | 0.90 | 0.90 | 78 | 1008.5 |
| 20260506132744 | 65 | 200 | 6.0 | 14.0 | 0.00 | 0.90 | 0.90 | 78 | 1008.6 |
| 20260506132544 | 65 | 180 | 6.0 | 14.0 | 0.00 | 0.90 | 0.90 | 78 | 1008.7 |
| 20260506132343 | 65 | 162 | 6.0 | 14.0 | 0.00 | 0.90 | 0.90 | 78 | 1008.7 |
| 20260506132143 | 65 | 166 | 2.0 | 9.0 | 0.00 | 0.90 | 0.90 | 80 | 1008.7 |
| 20260506131940 | 65 | 192 | 3.0 | 9.0 | 0.00 | 0.90 | 0.90 | 80 | 1008.8 |
| 20260506131740 | 65 | 135 | 3.0 | 7.0 | 0.00 | 0.90 | 0.90 | 81 | 1008.6 |
| 20260506131539 | 65 | 254 | 4.0 | 7.0 | 0.00 | 0.90 | 0.90 | 82 | 1008.7 |
| 20260506131338 | 65 | 86 | 2.0 | 9.0 | 0.00 | 0.90 | 0.90 | 82 | 1008.6 |
| 20260506131145 | 65 | 118 | 3.0 | 10.0 | 0.00 | 0.90 | 0.90 | 83 | 1008.7 |
| 20260506130937 | 65 | 231 | 2.0 | 10.0 | 0.01 | 0.90 | 0.90 | 84 | 1008.7 |
| 20260506130743 | 65 | 216 | 2.0 | 10.0 | 0.01 | 0.90 | 0.90 | 84 | 1008.9 |
| 20260506130539 | 65 | 193 | 4.0 | 10.0 | 0.01 | 0.90 | 0.90 | 84 | 1008.8 |
| 20260506130332 | 65 | 224 | 4.0 | 13.0 | 0.01 | 0.90 | 0.90 | 84 | 1009.1 |
| 20260506130136 | 65 | 199 | 3.0 | 13.0 | 0.01 | 0.90 | 0.90 | 84 | 1009.0 |
| 20260506125930 | 65 | 179 | 4.0 | 13.0 | 0.01 | 0.89 | 0.90 | 85 | 1009.1 |
| 20260506125732 | 65 | 230 | 2.0 | 13.0 | 0.01 | 0.89 | 0.90 | 85 | 1009.1 |
| 20260506125528 | 65 | 180 | 4.0 | 13.0 | 0.01 | 0.89 | 0.90 | 85 | 1008.9 |
| 20260506125132 | 65 | 192 | 5.0 | 10.0 | 0.01 | 0.89 | 0.90 | 85 | 1009.0 |
| 20260506124928 | 65 | 175 | 3.0 | 10.0 | 0.01 | 0.89 | 0.90 | 86 | 1009.0 |
| 20260506124725 | 65 | 227 | 4.0 | 10.0 | 0.01 | 0.89 | 0.90 | 87 | 1009.0 |
| 20260506124528 | 65 | 206 | 2.0 | 5.0 | 0.01 | 0.89 | 0.90 | 87 | 1009.1 |
| 20260506124323 | 65 | 207 | 2.0 | 7.0 | 0.02 | 0.89 | 0.90 | 87 | 1008.9 |
| 20260506124136 | 65 | 172 | 2.0 | 7.0 | 0.02 | 0.89 | 0.90 | 87 | 1008.9 |
| 20260506123921 | 65 | 161 | 2.0 | 10.0 | 0.02 | 0.89 | 0.90 | 86 | 1008.9 |
| 20260506123720 | 65 | 212 | 2.0 | 10.0 | 0.02 | 0.89 | 0.90 | 86 | 1009.0 |
| 20260506123521 | 65 | 203 | 4.0 | 10.0 | 0.02 | 0.89 | 0.90 | 86 | 1009.0 |
| 20260506123319 | 65 | 217 | 2.0 | 10.0 | 0.02 | 0.89 | 0.90 | 86 | 1009.2 |
| 20260506123123 | 65 | 217 | 5.0 | 10.0 | 0.02 | 0.89 | 0.90 | 86 | 1009.1 |
| 20260506122916 | 65 | 193 | 5.0 | 10.0 | 0.02 | 0.89 | 0.90 | 87 | 1009.1 |
| 20260506122713 | 65 | 182 | 2.0 | 6.0 | 0.02 | 0.89 | 0.90 | 88 | 1008.9 |
| 20260506122519 | 65 | 234 | 2.0 | 6.0 | 0.02 | 0.89 | 0.90 | 88 | 1008.9 |
| 20260506122312 | 65 | 195 | 2.0 | 5.0 | 0.02 | 0.89 | 0.90 | 88 | 1008.8 |
| 20260506122113 | 65 | 193 | 2.0 | 5.0 | 0.02 | 0.89 | 0.90 | 89 | 1008.8 |
| 20260506121911 | 65 | 127 | 1.0 | 5.0 | 0.02 | 0.89 | 0.90 | 89 | 1008.7 |
| 20260506121712 | 65 | 110 | 0.0 | 5.0 | 0.02 | 0.89 | 0.90 | 89 | 1008.7 |
| 20260506121521 | 65 | 103 | 1.0 | 5.0 | 0.02 | 0.89 | 0.90 | 89 | 1008.8 |
| 20260506121312 | 65 | 168 | 2.0 | 4.0 | 0.02 | 0.89 | 0.90 | 89 | 1008.9 |
| 20260506121133 | 65 | 282 | 1.0 | 5.0 | 0.02 | 0.89 | 0.90 | 89 | 1008.8 |
| 20260506120911 | 65 | 282 | 1.0 | 5.0 | 0.01 | 0.89 | 0.89 | 89 | 1008.9 |
| 20260506120712 | 65 | 283 | 1.0 | 9.0 | 0.01 | 0.89 | 0.89 | 89 | 1009.1 |
| 20260506120520 | 65 | 283 | 0.0 | 10.0 | 0.01 | 0.89 | 0.89 | 89 | 1009.1 |
| 20260506120308 | 65 | 283 | 2.0 | 10.0 | 0.01 | 0.89 | 0.89 | 88 | 1009.0 |
| 20260506120112 | 65 | 223 | 1.0 | 10.0 | 0.01 | 0.89 | 0.89 | 88 | 1009.1 |
| 20260506115907 | 65 | 298 | 5.0 | 10.0 | 0.01 | 0.88 | 0.89 | 88 | 1009.0 |
| 20260506115708 | 65 | 282 | 6.0 | 12.0 | 0.01 | 0.88 | 0.89 | 88 | 1009.0 |
| 20260506115515 | 66 | 282 | 3.0 | 13.0 | 0.01 | 0.88 | 0.89 | 88 | 1009.1 |
| 20260506115308 | 66 | 195 | 3.0 | 16.0 | 0.01 | 0.88 | 0.89 | 88 | 1009.0 |
| 20260506115113 | 66 | 241 | 5.0 | 16.0 | 0.01 | 0.88 | 0.89 | 87 | 1009.1 |
| 20260506114912 | 66 | 285 | 7.0 | 16.0 | 0.01 | 0.88 | 0.89 | 86 | 1008.9 |
| 20260506114711 | 66 | 286 | 9.0 | 16.0 | 0.01 | 0.88 | 0.89 | 84 | 1009.0 |
| 20260506114519 | 66 | 213 | 9.0 | 16.0 | 0.01 | 0.88 | 0.89 | 80 | 1009.0 |
| 20260506114311 | 67 | 231 | 8.0 | 16.0 | 0.00 | 0.88 | 0.88 | 79 | 1008.9 |
| 20260506114126 | 67 | 180 | 7.0 | 16.0 | 0.00 | 0.88 | 0.88 | 78 | 1008.8 |
| 20260506113911 | 67 | 189 | 9.0 | 16.0 | 0.00 | 0.88 | 0.88 | 77 | 1008.8 |
| 20260506113713 | 67 | 220 | 7.0 | 15.0 | 0.00 | 0.88 | 0.88 | 77 | 1008.7 |
| 20260506113519 | 67 | 233 | 8.0 | 15.0 | 0.00 | 0.88 | 0.88 | 76 | 1008.7 |
| 20260506113319 | 67 | 221 | 9.0 | 15.0 | 0.00 | 0.88 | 0.88 | 75 | 1008.7 |
| 20260506113116 | 67 | 252 | 8.0 | 13.0 | 0.00 | 0.88 | 0.88 | 76 | 1008.7 |
| 20260506112909 | 67 | 203 | 7.0 | 12.0 | 0.00 | 0.88 | 0.88 | 76 | 1008.7 |
| 20260506112712 | 67 | 216 | 7.0 | 12.0 | 0.00 | 0.88 | 0.88 | 76 | 1008.6 |
| 20260506112520 | 67 | 192 | 4.0 | 12.0 | 0.00 | 0.88 | 0.88 | 76 | 1008.6 |
| 20260506112308 | 67 | 235 | 5.0 | 12.0 | 0.00 | 0.88 | 0.88 | 76 | 1008.8 |
| 20260506112111 | 67 | 196 | 6.0 | 12.0 | 0.00 | 0.88 | 0.88 | 76 | 1008.7 |
| 20260506111909 | 68 | 247 | 5.0 | 11.0 | 0.00 | 0.88 | 0.88 | 76 | 1008.7 |
| 20260506111708 | 68 | 195 | 5.0 | 13.0 | 0.00 | 0.88 | 0.88 | 75 | 1008.6 |
| 20260506111516 | 68 | 206 | 4.0 | 13.0 | 0.00 | 0.88 | 0.88 | 75 | 1008.7 |
| 20260506111310 | 68 | 186 | 3.0 | 13.0 | 0.00 | 0.88 | 0.88 | 75 | 1008.7 |
| 20260506111122 | 67 | 193 | 4.0 | 13.0 | 0.00 | 0.88 | 0.88 | 75 | 1008.5 |
| 20260506110908 | 67 | 192 | 7.0 | 13.0 | 0.00 | 0.88 | 0.88 | 74 | 1008.5 |
| 20260506110708 | 68 | 165 | 4.0 | 13.0 | 0.00 | 0.88 | 0.88 | 75 | 1008.6 |
| 20260506110517 | 67 | 159 | 4.0 | 14.0 | 0.00 | 0.88 | 0.88 | 75 | 1008.6 |
| 20260506110309 | 67 | 152 | 6.0 | 14.0 | 0.00 | 0.88 | 0.88 | 75 | 1008.6 |
| 20260506110113 | 68 | 149 | 4.0 | 14.0 | 0.00 | 0.88 | 0.88 | 75 | 1008.6 |
| 20260506105908 | 67 | 278 | 3.0 | 14.0 | 0.00 | 0.88 | 0.88 | 75 | 1008.5 |
| 20260506105709 | 67 | 250 | 5.0 | 14.0 | 0.00 | 0.88 | 0.88 | 76 | 1008.6 |
| 20260506105517 | 67 | 266 | 4.0 | 12.0 | 0.00 | 0.88 | 0.88 | 76 | 1008.6 |
| 20260506105313 | 67 | 124 | 6.0 | 16.0 | 0.00 | 0.88 | 0.88 | 76 | 1008.7 |
| 20260506105112 | 67 | 125 | 5.0 | 16.0 | 0.00 | 0.88 | 0.88 | 76 | 1008.7 |
| 20260506104909 | 67 | 155 | 6.0 | 16.0 | 0.00 | 0.88 | 0.88 | 76 | 1008.7 |
| 20260506104710 | 67 | 252 | 4.0 | 16.0 | 0.00 | 0.88 | 0.88 | 77 | 1008.7 |
| 20260506104524 | 67 | 196 | 8.0 | 16.0 | 0.00 | 0.88 | 0.88 | 77 | 1008.9 |
| 20260506104310 | 67 | 217 | 9.0 | 16.0 | 0.00 | 0.88 | 0.88 | 78 | 1008.9 |
| 20260506104111 | 67 | 226 | 7.0 | 12.0 | 0.00 | 0.88 | 0.88 | 82 | 1008.8 |
| 20260506103910 | 67 | 183 | 3.0 | 6.0 | 0.00 | 0.88 | 0.88 | 85 | 1008.8 |
| 20260506103710 | 66 | 155 | 1.0 | 6.0 | 0.00 | 0.88 | 0.88 | 86 | 1008.9 |
| 20260506103528 | 66 | 124 | 1.0 | 6.0 | 0.00 | 0.88 | 0.88 | 86 | 1008.8 |
| 20260506103310 | 66 | 125 | 3.0 | 6.0 | 0.00 | 0.88 | 0.88 | 86 | 1008.8 |
| 20260506103112 | 66 | 124 | 2.0 | 6.0 | 0.00 | 0.88 | 0.88 | 86 | 1008.8 |
| 20260506102909 | 66 | 59 | 2.0 | 5.0 | 0.00 | 0.88 | 0.88 | 87 | 1008.8 |
| 20260506102710 | 66 | 66 | 1.0 | 5.0 | 0.00 | 0.88 | 0.88 | 88 | 1008.7 |
| 20260506102517 | 66 | 66 | 0.0 | 9.0 | 0.00 | 0.88 | 0.88 | 88 | 1008.8 |
| 20260506102309 | 66 | 66 | 1.0 | 9.0 | 0.00 | 0.88 | 0.88 | 88 | 1008.8 |
| 20260506102112 | 66 | 63 | 2.0 | 9.0 | 0.00 | 0.88 | 0.88 | 88 | 1009.0 |
| 20260506101911 | 66 | 110 | 3.0 | 9.0 | 0.00 | 0.88 | 0.88 | 88 | 1008.9 |
| 20260506101711 | 66 | 134 | 5.0 | 12.0 | 0.00 | 0.88 | 0.88 | 88 | 1008.9 |
| 20260506101523 | 65 | 118 | 5.0 | 12.0 | 0.00 | 0.88 | 0.88 | 88 | 1008.8 |
| 20260506101317 | 65 | 120 | 3.0 | 12.0 | 0.00 | 0.88 | 0.88 | 89 | 1009.0 |
| 20260506101111 | 65 | 176 | 5.0 | 12.0 | 0.00 | 0.88 | 0.88 | 89 | 1008.9 |
| 20260506100910 | 65 | 51 | 6.0 | 12.0 | 0.00 | 0.88 | 0.88 | 89 | 1008.9 |
| 20260506100709 | 65 | 96 | 4.0 | 10.0 | 0.00 | 0.88 | 0.88 | 90 | 1009.0 |
| 20260506100518 | 65 | 94 | 4.0 | 9.0 | 0.00 | 0.88 | 0.88 | 90 | 1008.9 |
| 20260506100312 | 65 | 135 | 5.0 | 9.0 | 0.00 | 0.88 | 0.88 | 90 | 1009.0 |
| 20260506100113 | 64 | 103 | 2.0 | 7.0 | 0.00 | 0.89 | 0.88 | 92 | 1009.0 |
| 20260506095911 | 64 | 131 | 3.0 | 10.0 | 0.00 | 0.89 | 0.88 | 90 | 1009.0 |
| 20260506095713 | 64 | 133 | 2.0 | 10.0 | 0.00 | 0.90 | 0.88 | 91 | 1009.0 |
| 20260506095528 | 64 | 128 | 3.0 | 10.0 | 0.00 | 0.91 | 0.88 | 91 | 1009.0 |
| 20260506095310 | 63 | 138 | 3.0 | 13.0 | 0.00 | 0.91 | 0.88 | 91 | 1009.1 |
| 20260506095108 | 63 | 118 | 4.0 | 13.0 | 0.00 | 0.91 | 0.88 | 91 | 1009.1 |
| 20260506094910 | 63 | 80 | 3.0 | 13.0 | 0.00 | 0.92 | 0.88 | 91 | 1009.1 |
| 20260506094709 | 63 | 121 | 4.0 | 13.0 | 0.00 | 0.92 | 0.88 | 91 | 1009.0 |
| 20260506094522 | 63 | 87 | 5.0 | 13.0 | 0.00 | 0.93 | 0.88 | 91 | 1009.1 |
| 20260506094308 | 63 | 103 | 5.0 | 10.0 | 0.00 | 0.93 | 0.88 | 91 | 1009.0 |
| 20260506094109 | 62 | 127 | 5.0 | 10.0 | 0.00 | 0.93 | 0.88 | 91 | 1008.9 |
| 20260506093908 | 62 | 106 | 2.0 | 9.0 | 0.00 | 0.94 | 0.88 | 91 | 1009.0 |
| 20260506093708 | 62 | 106 | 3.0 | 9.0 | 0.01 | 0.94 | 0.88 | 91 | 1009.0 |
| 20260506093519 | 62 | 94 | 5.0 | 9.0 | 0.01 | 0.94 | 0.88 | 91 | 1008.9 |
| 20260506093312 | 62 | 117 | 4.0 | 7.0 | 0.01 | 0.94 | 0.88 | 91 | 1008.9 |
| 20260506093110 | 62 | 39 | 3.0 | 7.0 | 0.02 | 0.94 | 0.88 | 91 | 1008.9 |
| 20260506092907 | 62 | 63 | 3.0 | 6.0 | 0.02 | 0.94 | 0.88 | 91 | 1009.0 |
| 20260506092708 | 62 | 114 | 2.0 | 6.0 | 0.02 | 0.94 | 0.88 | 91 | 1009.1 |
| 20260506092519 | 62 | 123 | 2.0 | 6.0 | 0.02 | 0.94 | 0.88 | 91 | 1009.0 |
| 20260506092310 | 61 | 59 | 3.0 | 6.0 | 0.02 | 0.94 | 0.88 | 91 | 1009.1 |
| 20260506092108 | 61 | 47 | 2.0 | 7.0 | 0.02 | 0.95 | 0.88 | 91 | 1009.1 |
| 20260506091908 | 61 | 59 | 2.0 | 7.0 | 0.02 | 0.95 | 0.88 | 91 | 1009.0 |
| 20260506091708 | 61 | 52 | 3.0 | 7.0 | 0.02 | 0.95 | 0.88 | 91 | 1009.0 |
| 20260506091517 | 61 | 89 | 2.0 | 7.0 | 0.02 | 0.95 | 0.88 | 91 | 1009.0 |
| 20260506091304 | 61 | 90 | 3.0 | 7.0 | 0.02 | 0.95 | 0.88 | 91 | 1009.0 |
| 20260506091105 | 61 | 102 | 3.0 | 6.0 | 0.03 | 0.96 | 0.88 | 91 | 1009.0 |
| 20260506090904 | 61 | 124 | 2.0 | 6.0 | 0.03 | 0.96 | 0.88 | 91 | 1009.1 |
| 20260506090703 | 61 | 125 | 2.0 | 9.0 | 0.03 | 0.96 | 0.88 | 91 | 1009.1 |
| 20260506090514 | 60 | 125 | 3.0 | 9.0 | 0.03 | 0.96 | 0.88 | 91 | 1009.0 |
| 20260506090301 | 60 | 113 | 2.0 | 9.0 | 0.03 | 0.96 | 0.88 | 91 | 1009.0 |
| 20260506085903 | 60 | 96 | 3.0 | 10.0 | 0.03 | 0.94 | 0.88 | 91 | 1009.0 |
| 20260506085701 | 60 | 123 | 4.0 | 10.0 | 0.03 | 0.94 | 0.88 | 91 | 1009.0 |
| 20260506085501 | 60 | 144 | 3.0 | 10.0 | 0.03 | 0.94 | 0.88 | 91 | 1009.0 |
| 20260506085305 | 60 | 61 | 5.0 | 10.0 | 0.03 | 0.94 | 0.88 | 91 | 1009.1 |
| 20260506085102 | 60 | 32 | 4.0 | 7.0 | 0.03 | 0.94 | 0.88 | 91 | 1009.1 |
| 20260506084907 | 60 | 51 | 2.0 | 5.0 | 0.04 | 0.94 | 0.88 | 91 | 1009.1 |
| 20260506084705 | 60 | 94 | 2.0 | 5.0 | 0.04 | 0.94 | 0.88 | 91 | 1009.1 |
| 20260506084509 | 60 | 116 | 3.0 | 5.0 | 0.04 | 0.94 | 0.88 | 91 | 1009.1 |
| 20260506084301 | 60 | 106 | 4.0 | 5.0 | 0.04 | 0.94 | 0.88 | 91 | 1009.2 |
| 20260506084053 | 60 | 58 | 1.0 | 3.0 | 0.04 | 0.94 | 0.88 | 91 | 1009.3 |
| 20260506083851 | 59 | 51 | 1.0 | 3.0 | 0.04 | 0.94 | 0.88 | 91 | 1009.2 |
| 20260506083651 | 59 | 76 | 2.0 | 5.0 | 0.03 | 0.94 | 0.87 | 91 | 1009.3 |
| 20260506083450 | 59 | 75 | 2.0 | 7.0 | 0.04 | 0.95 | 0.87 | 91 | 1009.3 |
| 20260506083250 | 59 | 116 | 1.0 | 7.0 | 0.03 | 0.95 | 0.87 | 91 | 1009.3 |
| 20260506083049 | 59 | 116 | 1.0 | 7.0 | 0.03 | 0.95 | 0.87 | 91 | 1009.3 |
| 20260506082852 | 59 | 116 | 2.0 | 7.0 | 0.04 | 0.95 | 0.87 | 91 | 1009.3 |
| 20260506082649 | 59 | 149 | 3.0 | 7.0 | 0.04 | 0.95 | 0.87 | 91 | 1009.2 |
| 20260506082449 | 59 | 127 | 3.0 | 7.0 | 0.05 | 0.95 | 0.87 | 91 | 1009.2 |
| 20260506082248 | 59 | 117 | 2.0 | 9.0 | 0.05 | 0.95 | 0.86 | 91 | 1009.2 |
| 20260506082043 | 59 | 85 | 3.0 | 9.0 | 0.04 | 0.95 | 0.86 | 91 | 1009.3 |
| 20260506081849 | 59 | 79 | 3.0 | 9.0 | 0.04 | 0.95 | 0.86 | 91 | 1009.2 |
| 20260506081642 | 59 | 109 | 4.0 | 9.0 | 0.05 | 0.95 | 0.86 | 91 | 1009.2 |
| 20260506081438 | 59 | 117 | 5.0 | 9.0 | 0.05 | 0.95 | 0.86 | 91 | 1009.2 |
| 20260506081238 | 59 | 111 | 2.0 | 4.0 | 0.05 | 0.95 | 0.85 | 91 | 1009.1 |
| 20260506081038 | 59 | 111 | 2.0 | 4.0 | 0.05 | 0.95 | 0.85 | 91 | 1009.2 |
| 20260506080834 | 59 | 111 | 2.0 | 3.0 | 0.06 | 0.95 | 0.85 | 91 | 1009.1 |
| 20260506080634 | 59 | 111 | 1.0 | 3.0 | 0.06 | 0.95 | 0.85 | 91 | 1009.1 |
| 20260506080433 | 59 | 111 | 1.0 | 3.0 | 0.06 | 0.95 | 0.85 | 91 | 1009.1 |
| 20260506080233 | 59 | 111 | 0.0 | 4.0 | 0.06 | 0.95 | 0.85 | 91 | 1009.0 |
| 20260506080127 | 59 | 111 | 2.0 | 4.0 | 0.06 | 0.95 | 0.85 | 91 | 1009.1 |
| 20260506073419 | 59 | 130 | 1.0 | 4.0 | 0.06 | 0.90 | 0.83 | 91 | 1009.3 |
| 20260506073215 | 59 | 130 | 1.0 | 4.0 | 0.06 | 0.90 | 0.83 | 91 | 1009.3 |
| 20260506073022 | 59 | 130 | 0.0 | 4.0 | 0.06 | 0.90 | 0.83 | 91 | 1009.2 |
| 20260506072811 | 59 | 130 | 1.0 | 4.0 | 0.05 | 0.90 | 0.83 | 91 | 1009.2 |
| 20260506072611 | 59 | 130 | 1.0 | 6.0 | 0.06 | 0.90 | 0.83 | 91 | 1009.2 |
| 20260506072413 | 59 | 133 | 2.0 | 9.0 | 0.05 | 0.90 | 0.82 | 91 | 1009.2 |
| 20260506072212 | 59 | 133 | 3.0 | 9.0 | 0.06 | 0.90 | 0.82 | 91 | 1009.2 |
| 20260506072018 | 59 | 106 | 2.0 | 9.0 | 0.06 | 0.90 | 0.82 | 91 | 1009.3 |
| 20260506071808 | 59 | 125 | 3.0 | 9.0 | 0.06 | 0.90 | 0.81 | 91 | 1009.2 |
| 20260506071610 | 58 | 168 | 4.0 | 9.0 | 0.06 | 0.90 | 0.81 | 91 | 1009.3 |
| 20260506071409 | 58 | 106 | 4.0 | 9.0 | 0.06 | 0.90 | 0.80 | 91 | 1009.3 |
| 20260506071213 | 58 | 96 | 4.0 | 9.0 | 0.06 | 0.90 | 0.80 | 91 | 1009.3 |
| 20260506071022 | 58 | 169 | 3.0 | 9.0 | 0.06 | 0.90 | 0.80 | 91 | 1009.3 |
| 20260506070810 | 58 | 121 | 4.0 | 10.0 | 0.06 | 0.91 | 0.80 | 91 | 1009.3 |
| 20260506070612 | 58 | 123 | 4.0 | 11.0 | 0.07 | 0.91 | 0.80 | 91 | 1009.3 |
| 20260506070409 | 58 | 140 | 5.0 | 11.0 | 0.07 | 0.91 | 0.80 | 91 | 1009.4 |
| 20260506070207 | 58 | 120 | 4.0 | 11.0 | 0.08 | 0.91 | 0.80 | 91 | 1009.4 |
| 20260506062352 | 58 | 138 | 3.0 | 5.0 | 0.13 | 0.90 | 0.76 | 91 | 1009.6 |
| 20260506062149 | 58 | 145 | 2.0 | 5.0 | 0.12 | 0.91 | 0.76 | 91 | 1009.6 |
| 20260506061948 | 58 | 130 | 2.0 | 5.0 | 0.11 | 0.91 | 0.76 | 91 | 1009.7 |
| 20260506061731 | 58 | 114 | 1.0 | 3.0 | 0.11 | 0.93 | 0.75 | 91 | 1009.6 |
| 20260506061531 | 58 | 114 | 0.0 | 3.0 | 0.11 | 0.94 | 0.74 | 91 | 1009.6 |
| 20260506061331 | 58 | 114 | 0.0 | 3.0 | 0.10 | 0.94 | 0.74 | 91 | 1009.5 |
| 20260506061130 | 58 | 114 | 1.0 | 3.0 | 0.10 | 0.96 | 0.73 | 91 | 1009.5 |
| 20260506060930 | 58 | 114 | 1.0 | 3.0 | 0.10 | 0.97 | 0.73 | 91 | 1009.6 |
| 20260506060730 | 58 | 114 | 0.0 | 3.0 | 0.10 | 0.98 | 0.73 | 91 | 1009.6 |
| 20260506060531 | 58 | 114 | 0.0 | 3.0 | 0.09 | 0.99 | 0.72 | 91 | 1009.7 |
| 20260506060336 | 58 | 114 | 1.0 | 3.0 | 0.09 | 1.01 | 0.72 | 91 | 1009.6 |
| 20260506060126 | 58 | 114 | 0.0 | 2.0 | 0.09 | 1.02 | 0.72 | 91 | 1009.6 |